This is the latest recevied weather packets stored in our database for station/object EA4IAJ-12. If no packets are shown the sender has not sent any weather packets the latest 10 day(s).
| Time | Temp. | Humidity | Pressure | Rain* | Wind** | Luminosity | Snow |
|---|---|---|---|---|---|---|---|
| 1777845620 | 15.56° C | 100% | 1006.5 hPa | - | - | - | - |
| 1777844733 | 15.56° C | 100% | 1007.4 hPa | - | - | - | - |
| 1777843832 | 15.56° C | 100% | 1007.1 hPa | - | - | - | - |
| 1777842931 | 15.56° C | 100% | 1007.4 hPa | - | - | - | - |
| 1777842031 | 16.11° C | 100% | 1008.5 hPa | - | - | - | - |
| 1777841130 | 16.11° C | 100% | 1008.5 hPa | - | - | - | - |
| 1777840230 | 16.11° C | 100% | 1009.1 hPa | - | - | - | - |
| 1777839329 | 16.11° C | 100% | 1009.4 hPa | - | - | - | - |
| 1777838429 | 16.11° C | 100% | 1009.8 hPa | - | - | - | - |
| 1777837528 | 16.11° C | 100% | 1009.8 hPa | - | - | - | - |
| 1777836628 | 16.67° C | 100% | 1010.5 hPa | - | - | - | - |
| 1777835727 | 16.67° C | 100% | 1011.8 hPa | - | - | - | - |
| 1777834826 | 17.22° C | 100% | 1013.4 hPa | - | - | - | - |
| 1777833927 | 17.78° C | 100% | 1014.3 hPa | - | - | - | - |
| 1777833025 | 18.33° C | 100% | 1016.6 hPa | - | - | - | - |
| 1777832125 | 18.89° C | 100% | 1020.2 hPa | - | - | - | - |
| 1777831224 | 20° C | 100% | 1023.4 hPa | - | - | - | - |
| 1777830324 | 21.11° C | 100% | 1029.7 hPa | - | - | - | - |
| 1777829423 | 21.67° C | 100% | 1032.2 hPa | - | - | - | - |
| 1777828523 | 20.56° C | 100% | 1027.8 hPa | - | - | - | - |
| 1777827622 | 20° C | 100% | 1024.6 hPa | - | - | - | - |
| 1777826721 | 21.11° C | 100% | 1030.2 hPa | - | - | - | - |
| 1777825821 | 20.56° C | 100% | 1027.9 hPa | - | - | - | - |
| 1777824920 | 21.67° C | 100% | 1031.8 hPa | - | - | - | - |
| 1777824020 | 21.11° C | 100% | 1031 hPa | - | - | - | - |
* Rain since midnight (hover to see other rain measurements)
** Current wind speed in m/s (hover to see current wind gust speed)